EST,Max TemperatureF,Mean TemperatureF,Min TemperatureF,Max Dew PointF,MeanDew PointF,Min DewpointF,Max Humidity, Mean Humidity, Min Humidity, Max Sea Level PressureIn, Mean Sea Level PressureIn, Min Sea Level PressureIn, Max VisibilityMiles, Mean VisibilityMiles, Min VisibilityMiles, Max Wind SpeedMPH, Mean Wind SpeedMPH, Max Gust SpeedMPH,PrecipitationIn, CloudCover, Events, WindDirDegrees
2014-2-1,12,-1,-14,9,-2,-24,100,81,59,30.06,29.99,29.91,10,9,1,7,2,,0.00,5,,253
2014-2-2,17,4,-7,7,-2,-17,100,76,49,30.21,30.13,29.99,10,10,4,12,4,,0.00,3,,267
2014-2-3,12,0,-13,5,-4,-22,100,75,59,30.27,30.22,30.19,10,10,5,15,4,21,0.00,0,,220
2014-2-4,19,4,-11,12,0,-20,100,76,57,30.41,30.34,30.24,10,9,5,12,3,16,0.00,2,,66
2014-2-5,12,8,3,9,1,-2,85,71,57,30.34,30.31,30.28,10,10,5,15,8,23,0.00,6,,359
2014-2-6,12,5,-2,0,-6,-9,100,65,44,30.32,30.16,30.06,10,10,10,16,6,20,0.00,2,,255
2014-2-7,17,5,-7,0,-7,-15,84,60,38,30.10,30.03,29.97,10,10,10,20,10,24,0.00,0,,240
2014-2-8,12,2,-9,3,-5,-18,100,71,52,30.17,30.12,30.07,10,10,10,15,6,17,0.00,0,,225
2014-2-9,17,5,-7,9,0,-15,100,74,49,30.19,30.08,30.02,10,9,2,13,3,18,0.00,5,,335
2014-2-10,8,-2,-11,-4,-8,-18,100,67,44,30.39,30.28,30.20,10,10,9,10,7,16,0.00,3,,317
2014-2-11,8,-4,-16,0,-8,-24,100,73,57,30.43,30.36,30.21,10,10,10,14,5,18,0.00,0,,221
2014-2-12,15,8,1,10,3,-6,100,76,61,30.21,30.07,29.97,10,8,2,15,8,23,0.00,5,,207
2014-2-13,26,13,0,25,12,-8,100,90,72,29.97,29.67,29.44,10,4,0,20,4,25,0.00,6,,179
2014-2-14,21,11,1,19,8,-6,93,75,58,29.89,29.66,29.43,10,8,2,17,5,31,0.00,5,,337
2014-2-15,12,2,-5,9,-1,-15,92,79,65,30.02,29.97,29.89,10,9,1,10,5,,0.00,5,,259
2014-2-16,17,6,-4,9,4,-9,92,74,53,30.30,30.15,29.96,10,8,1,13,6,16,0.00,3,,24
2014-2-17,21,6,-9,18,11,-17,100,87,71,30.28,30.01,29.75,10,7,1,20,8,26,0.00,7,,119
2014-2-18,30,16,1,28,14,-4,100,89,72,29.78,29.69,29.56,10,5,0,13,2,20,0.00,5,,183
2014-2-19,44,24,3,25,17,-4,100,74,37,29.85,29.70,29.55,10,8,1,17,5,24,0.00,1,,246
2014-2-20,37,26,14,30,22,10,100,82,70,29.88,29.65,29.06,10,8,0,34,8,43,0.20,6,,98
2014-2-21,35,26,17,34,19,7,100,76,59,29.45,29.11,28.89,10,8,1,30,23,40,0.19,7,,222
2014-2-22,24,17,10,9,5,1,73,61,46,29.86,29.66,29.45,10,10,5,23,17,29,0.00,0,,262
2014-2-23,19,10,1,7,1,-6,92,65,42,30.00,29.93,29.86,10,10,9,17,9,25,0.00,2,,266
2014-2-24,15,6,-4,3,-2,-9,92,67,49,30.15,30.07,30.00,10,10,10,17,7,23,0.00,3,,286
2014-2-25,10,4,-2,0,-6,-13,100,63,41,30.12,30.04,29.97,10,9,0,21,8,28,0.00,3,,285
2014-2-26,10,-2,-13,1,-10,-18,92,64,40,30.05,29.74,29.44,10,10,1,22,9,30,0.00,3,,249
2014-2-27,3,-6,-20,-4,-16,-26,85,51,32,30.15,29.91,29.49,10,9,1,20,11,30,0.00,3,,323
2014-2-28,12,-6,-25,10,-8,-29,100,77,29,30.15,30.07,29.94,10,7,0,12,2,,0.00,5,,192